DateTimeUTC,F1_A11,F1_S11,BsB_S11,BsG_S11,BsR_S11,BbsB_S11,BbsG_S11,BbsR_S11,BaB_A11,BaG_A11,BaR_A11,Tu_S11,T_S11,Uu_S11,U_S11,P_S11,T1_A11
2021-01-25T16:00:00Z,00000200,21000000,,,,,,,-000.55,-000.20,-000.62,15.8,23.2,,00.0,0645.5,30.9
2021-01-25T16:01:00Z,00000200,21000000,,,,,,,-000.28,-000.29,0000.12,15.7,23.2,,00.0,0645.5,30.9
2021-01-25T16:02:00Z,00000200,21000000,,,,,,,0000.00,-000.71,-000.59,15.7,23.2,,00.0,0645.5,30.9
2021-01-25T16:03:00Z,00000200,61000000,,,,,,,-001.01,-000.31,-000.19,15.7,23.2,,00.0,0645.5,30.9
2021-01-25T16:04:00Z,00000200,41000000,0000.38,0000.11,0000.07,0000.28,0000.08,0000.14,0000.14,0000.02,-000.01,16.1,23.0,,00.0,0646.3,30.9
2021-01-25T16:05:00Z,00000200,01000000,-000.13,0000.12,0000.18,0000.18,0000.25,0000.17,-000.10,-000.01,0000.61,16.2,23.0,,00.0,0646.3,30.9
2021-01-25T16:06:00Z,00000200,01000000,0000.18,0000.05,0000.08,0000.58,-000.06,0000.31,-000.10,-000.14,-000.44,16.2,23.0,,00.0,0646.4,30.9
2021-01-25T16:07:00Z,00000200,01000000,0000.29,0000.06,0000.00,-000.46,0000.18,0000.27,0000.21,0000.14,0000.22,16.2,23.0,,00.0,0646.4,30.9
2021-01-25T16:08:00Z,00000200,01000000,0000.81,-000.15,0000.51,0000.51,0000.19,0000.14,-000.31,-000.04,0000.11,16.2,23.0,,00.0,0646.4,30.9
2021-01-25T16:09:00Z,00000200,01000000,0000.37,-000.05,0000.17,-000.23,-000.12,-000.11,0000.72,0000.49,0000.32,16.2,23.0,,00.0,0646.3,31.0
2021-01-25T16:10:00Z,00000200,01000000,-000.48,-000.00,0000.17,-000.48,0000.19,0000.31,0000.61,0000.44,0000.03,16.3,23.0,,00.0,0646.1,30.9
2021-01-25T16:11:00Z,00000200,01000000,0000.03,0000.02,0000.24,0000.55,0000.20,-000.01,0000.18,0000.77,0000.39,16.3,23.0,,00.0,0646.0,30.9
2021-01-25T16:12:00Z,00000200,01000000,0000.12,0000.05,0000.16,-000.22,0000.21,0000.07,0000.81,0000.26,0000.38,16.2,23.0,,00.0,0645.8,30.9
2021-01-25T16:13:00Z,00000200,01000000,0000.43,-000.02,0000.15,0001.05,0000.05,0000.18,0000.56,0000.57,0000.51,16.1,23.0,,00.0,0645.7,30.9
2021-01-25T16:14:00Z,00000200,01000000,0000.72,-000.37,0000.15,0000.51,-000.06,0000.21,0001.03,0001.14,0000.90,16.1,22.9,,00.0,0645.5,30.9
2021-01-25T16:15:00Z,00000200,01000000,0000.58,0000.33,0000.44,0000.38,-000.29,0000.17,0000.78,0000.75,0000.15,16.1,22.9,,00.0,0645.5,30.9
2021-01-25T16:16:00Z,00000200,01000000,0000.17,0000.11,0000.03,0000.57,0000.01,0000.22,0000.98,0000.16,0000.07,16.1,22.9,,00.0,0645.5,30.9
2021-01-25T16:17:00Z,00000200,01000000,-000.34,-000.07,0000.09,0000.15,0000.01,0000.20,0000.37,0000.92,0000.49,16.1,22.9,,00.0,0645.5,30.9
2021-01-25T16:18:00Z,00000200,01000000,0000.21,-000.09,0000.01,-000.15,0000.07,0000.04,0000.35,0000.73,0000.41,16.2,22.9,,00.0,0645.5,30.9
2021-01-25T16:19:00Z,00000200,01000000,0000.54,-000.13,-000.26,0000.02,-000.01,0000.08,0000.53,-000.16,0000.22,16.2,22.9,,00.0,0645.5,30.9
2021-01-25T16:20:00Z,00000200,01000000,0000.55,-000.14,0000.01,-000.36,0000.08,-000.09,0000.07,0000.48,0000.43,16.2,22.9,,00.0,0645.5,30.9
2021-01-25T16:21:00Z,00000200,01000000,0000.58,-000.29,0000.33,0000.22,0000.03,-000.00,0000.88,0000.57,0000.33,16.2,22.9,,00.0,0645.5,30.9
2021-01-25T16:22:00Z,00000200,01000000,0000.33,0000.10,0000.18,-000.02,0000.15,0000.10,0000.31,0000.31,-000.06,16.3,23.0,,00.0,0645.4,30.9
2021-01-25T16:23:00Z,00000200,01000000,-000.43,-000.15,0000.21,0000.59,0000.13,0000.24,-000.37,-000.42,-000.02,16.3,22.9,,00.0,0645.6,30.9
2021-01-25T16:24:00Z,00000200,01000000,0000.47,-000.28,0000.16,0000.22,0000.13,0000.12,-001.77,-001.78,-001.33,16.2,22.9,,00.0,0646.0,30.9
2021-01-25T16:25:00Z,00000200,01000000,0000.71,-000.17,0000.01,0000.26,0000.25,-000.01,-002.05,-001.46,-001.42,16.2,22.9,,00.0,0646.2,30.9
2021-01-25T16:26:00Z,00000200,01000000,0000.80,-000.45,0000.20,0000.28,0000.00,-000.13,-000.86,-000.97,-000.15,16.1,22.9,,00.0,0646.2,30.9
2021-01-25T16:27:00Z,00000200,01000000,0000.25,-000.01,0000.41,0000.42,0000.45,0000.22,-000.28,-000.40,-000.58,16.0,22.8,,00.0,0646.0,30.9
2021-01-25T16:28:00Z,00000200,01000000,-000.12,-000.03,0000.40,0000.28,0000.24,0000.14,-000.02,-000.33,0000.08,15.9,22.8,,00.0,0645.9,30.9
2021-01-25T16:29:00Z,00000200,01000000,0000.27,-000.07,0000.14,0000.09,0000.10,-000.26,0001.26,0001.17,0000.84,15.9,22.7,,00.0,0645.6,30.9
2021-01-25T16:30:00Z,00000200,01000000,0000.52,-000.01,0000.26,-000.18,0000.12,0000.29,0002.11,0002.13,0001.55,15.8,22.7,,00.0,0645.5,30.9
2021-01-25T16:31:00Z,00000200,01000000,0000.45,-000.07,0000.25,0000.15,0000.18,0000.09,0001.20,0000.80,0000.62,15.9,22.7,,00.0,0645.4,30.9
2021-01-25T16:32:00Z,00000200,01000000,0000.06,0000.24,0000.21,-000.31,0000.11,0000.30,-000.36,-000.28,-000.63,15.9,22.7,,00.0,0645.4,30.9
2021-01-25T16:33:00Z,00000200,01000000,-000.20,0000.08,0000.27,-000.00,0000.16,0000.24,0000.21,0000.47,0000.51,15.9,22.7,,00.0,0645.4,30.9
2021-01-25T16:34:00Z,00000200,01000000,0000.01,-000.06,0000.19,0000.21,0000.26,-000.03,0000.72,0000.47,0000.54,15.9,22.7,,00.0,0645.3,30.9
2021-01-25T16:35:00Z,00000200,01000000,0000.03,-000.19,0000.25,0000.21,0000.35,0000.32,-000.07,0000.17,-000.19,16.0,22.7,,00.0,0645.3,30.9
2021-01-25T16:36:00Z,00000200,01000000,0000.61,-000.01,0000.08,0000.44,0000.24,0000.04,-000.00,0000.14,0000.09,16.0,22.7,,00.0,0645.3,30.9
2021-01-25T16:37:00Z,00000200,01000000,0000.77,0000.16,0000.34,0000.15,0000.08,-000.03,0000.59,0000.05,0000.05,16.0,22.7,,00.0,0645.3,30.9
2021-01-25T16:38:00Z,00000200,01000000,-000.02,-000.02,0000.41,0000.17,0000.07,0000.22,0001.21,0001.78,0000.96,16.1,22.7,,00.0,0645.3,30.9
2021-01-25T16:39:00Z,00000200,01000000,0000.34,-000.19,0000.17,0000.36,0000.26,0000.17,0002.15,0001.49,0001.29,16.1,22.8,,00.0,0645.3,30.9
2021-01-25T16:40:00Z,00000200,01000000,0000.21,0000.12,-000.07,0000.47,0000.21,0000.03,0001.50,0001.22,0000.91,16.2,22.8,,00.0,0645.2,30.9
2021-01-25T16:41:00Z,00000200,01000000,0000.17,0000.07,0000.05,0000.32,0000.12,0000.01,0001.31,0001.07,0000.66,16.1,22.8,,00.0,0645.2,30.9
2021-01-25T16:42:00Z,00000200,01000000,0000.68,-000.25,0000.37,0000.09,-000.02,0000.23,-000.00,0000.33,0000.34,16.1,22.7,,00.0,0645.1,30.9
2021-01-25T16:43:00Z,00000200,01000000,-000.03,-000.11,0000.13,0000.68,-000.01,0000.16,0000.42,0000.15,-000.30,16.0,22.7,,00.0,0645.1,30.9
2021-01-25T16:44:00Z,00000200,01000000,0000.30,-000.03,0000.03,0000.19,0000.24,0000.12,0000.23,0000.44,0000.21,15.9,22.7,,00.0,0645.1,30.9
2021-01-25T16:45:00Z,00000200,01000000,0000.30,0000.14,0000.24,0000.47,-000.15,0000.44,0000.58,-000.03,0000.38,15.9,22.6,,00.0,0645.1,30.9
2021-01-25T16:46:00Z,00000200,01000000,0000.22,0000.04,0000.26,0000.20,0000.24,0000.18,-000.39,0000.50,-000.23,15.9,22.6,,00.0,0645.1,30.9
2021-01-25T16:47:00Z,00000200,01000000,0000.03,0000.10,0000.14,-000.31,0000.01,0000.12,0000.52,-000.17,0000.04,16.0,22.6,,00.0,0645.1,30.9
2021-01-25T16:48:00Z,00000200,01000000,0000.66,-000.05,0000.20,0000.25,0000.31,0000.11,0000.23,-000.08,0000.17,16.0,22.6,,00.0,0645.1,30.9
2021-01-25T16:49:00Z,00000200,01000000,0000.35,0000.07,0000.36,0000.23,0000.30,0000.05,-000.69,-000.04,0000.04,16.0,22.6,,00.0,0645.1,30.9
2021-01-25T16:50:00Z,00000200,01000000,0000.27,-000.06,0000.26,0000.13,0000.23,0000.03,-000.13,-000.45,-000.34,16.0,22.6,,00.0,0645.1,30.9
2021-01-25T16:51:00Z,00000200,01000000,0000.84,-000.01,0000.24,-000.11,0000.08,0000.12,-000.09,0000.38,0000.25,16.1,22.7,,00.0,0645.1,30.9
2021-01-25T16:52:00Z,00000200,01000000,0000.47,-000.14,0000.23,-000.24,0000.24,0000.30,0000.06,-000.17,-000.08,16.1,22.7,,00.0,0645.1,30.9
2021-01-25T16:53:00Z,00000200,01000000,-000.01,0000.26,0000.27,-000.10,-000.09,0000.01,-000.35,-000.18,-000.22,16.1,22.7,,00.0,0645.1,30.9
2021-01-25T16:54:00Z,00000200,01000000,-000.21,-000.19,0000.47,0000.31,0000.07,0000.01,0000.21,0000.16,-000.00,16.2,22.7,,00.0,0645.1,30.9
2021-01-25T16:55:00Z,00000200,01000000,0000.63,-000.21,-000.04,0000.78,0000.09,-000.44,0001.06,0000.76,0000.41,16.2,22.7,,00.0,0645.1,30.9
2021-01-25T16:56:00Z,00000200,01000000,0000.58,-000.04,0000.30,0000.50,0000.08,0000.27,0000.49,0001.10,0000.91,16.2,22.7,,00.0,0645.1,30.9
2021-01-25T16:57:00Z,00000200,41000000,,,,,,,-002.89,-003.11,-002.16,16.3,22.8,,00.0,0645.1,30.9
2021-01-25T16:58:00Z,00000200,61000000,,,,,,,0001.63,0001.43,0000.75,15.8,22.9,,00.0,0644.1,30.9
2021-01-25T16:59:00Z,00000200,21000000,,,,,,,0000.92,0000.91,0000.90,15.8,23.0,,00.0,0644.1,30.9
